Weather History for KBKL - January, 2001

Change the Weather History Date:

Saturday, January 27, 2001

  Actual Average Record
Temperature  
Mean Temperature 26 °F -  
Max Temperature 32 °F 33 °F 59 °F (2002)
Min Temperature 19 °F 21 °F 1 °F (2003)
Degree Days  
Heating Degree Days 38    
Moisture  
Dew Point 26 °F    
Average Humidity 88    
Maximum Humidity 100    
Minimum Humidity 71    
Precipitation  
Precipitation 0.01 in - - ()
Sea Level Pressure  
Sea Level Pressure 29.99 in    
Wind  
Wind Speed 20 mph (West)    
Max Wind Speed 30 mph    
Max Gust Speed 34 mph    
Visibility 5 miles    
Events Rain , Snow    
Averages and records for this station are not official NWS values.
T = Trace of Precipitation, MM = Missing Value Source: NWS Daily Summary

Daily Weather History Graph

Daily Weather History Graph

Search for Another Location

Airport or City:

Trip Planner

Search our weather history database for the weather conditions in past years. The results will help you decide how hot, cold, wet, or windy it might be!

Date:

Astronomy

Jan. 27, 2001 Rise Set
Actual Time 7:42 AM EST 5:36 PM EST
Civil Twilight 7:13 AM EST 6:06 PM EST
Nautical Twilight 6:39 AM EST 6:39 PM EST
Astronomical Twilight 6:07 AM EST 7:12 PM EST
Moon 9:37 AM EST (1/27) 8:39 PM EST (1/27)
Length of Visible Light 10h 53m
Length of Day
9h 53m
Waxing Crescent, 9% of the Moon is Illuminated
Jan 27
Waxing Crescent
Feb 1
First Quarter
Feb 8
Full
Feb 14
Last Quarter
Feb 23
New

Hourly Weather History & Observations

Time (EST) Temp. Windchill Dew Point Humidity Pressure Visibility Wind Dir Wind Speed Gust Speed Precip Events Conditions
12:08 AM 32.0 °F 22.5 °F 30.2 °F 93% 29.75 in 4.0 mi SW 12.7 mph - 0.00 in Snow Light Snow
12:53 AM 32.0 °F 21.6 °F 30.0 °F 92% 29.77 in 9.0 mi WSW 15.0 mph - 0.00 in   Overcast
1:53 AM 32.0 °F 21.6 °F 30.0 °F 92% 29.78 in 7.0 mi WSW 15.0 mph - 0.00 in Snow Light Snow
2:45 AM 32.0 °F 20.1 °F 30.2 °F 93% 29.76 in 1.8 mi West 19.6 mph 25.3 mph 0.00 in Snow Light Snow
2:53 AM 32.0 °F 20.8 °F 30.0 °F 92% 29.79 in 1.5 mi West 17.3 mph - 0.00 in Snow Light Snow
2:59 AM 30.2 °F 18.9 °F 30.2 °F 100% 29.77 in 1.2 mi West 16.1 mph - 0.00 in Snow Light Snow
3:05 AM 30.2 °F 18.1 °F 30.2 °F 100% 29.77 in 1.2 mi West 18.4 mph - 0.00 in Snow Light Snow
3:30 AM 30.2 °F 18.5 °F 30.2 °F 100% 29.78 in 2.0 mi WSW 17.3 mph - 0.00 in Snow Light Snow
3:53 AM 30.9 °F 18.7 °F 30.0 °F 96% 29.80 in 2.5 mi WSW 19.6 mph - 0.01 in Snow Light Snow
4:37 AM 32.0 °F 19.2 °F 30.2 °F 93% 29.80 in 3.0 mi West 23.0 mph - 0.00 in Snow Light Snow
4:53 AM 32.0 °F 19.2 °F 30.0 °F 92% 29.82 in 2.5 mi West 23.0 mph - 0.00 in Snow Light Snow
5:05 AM 32.0 °F 19.8 °F 30.2 °F 93% 29.81 in 3.0 mi West 20.7 mph 27.6 mph 0.00 in Snow Light Snow
5:20 AM 32.0 °F 19.2 °F 30.2 °F 93% 29.81 in 2.5 mi West 23.0 mph - 0.00 in Snow Light Snow
5:40 AM 30.2 °F 17.1 °F 30.2 °F 100% 29.82 in 3.0 mi West 21.9 mph 27.6 mph 0.00 in Snow Light Snow
5:53 AM 30.9 °F 17.2 °F 30.0 °F 96% 29.85 in 3.0 mi West 25.3 mph 33.4 mph 0.00 in Snow Light Snow
6:15 AM 30.2 °F 16.8 °F 28.4 °F 93% 29.85 in 3.0 mi West 23.0 mph - 0.00 in Snow Light Snow
6:18 AM 30.2 °F 15.9 °F 28.4 °F 93% 29.85 in 1.5 mi West 26.5 mph 29.9 mph 0.00 in Snow Light Snow
6:44 AM 30.2 °F 16.5 °F 28.4 °F 93% 29.87 in 1.2 mi West 24.2 mph 31.1 mph 0.00 in Snow Light Snow
6:53 AM 30.0 °F 16.0 °F 28.9 °F 96% 29.90 in 1.5 mi West 25.3 mph 31.1 mph 0.00 in Snow Light Snow
7:06 AM 30.2 °F 16.2 °F 28.4 °F 93% 29.88 in 2.0 mi West 25.3 mph 28.8 mph 0.00 in Snow Light Snow
7:29 AM 30.2 °F 15.7 °F 28.4 °F 93% 29.90 in 2.0 mi West 27.6 mph 33.4 mph 0.00 in Snow Light Snow
7:53 AM 30.0 °F 16.3 °F 28.9 °F 96% 29.94 in 1.5 mi West 24.2 mph 33.4 mph 0.00 in Snow Light Snow
8:02 AM 30.2 °F 16.5 °F 28.4 °F 93% 29.92 in 1.0 mi West 24.2 mph 32.2 mph 0.00 in Snow Light Snow
8:13 AM 30.2 °F 16.5 °F 28.4 °F 93% 29.93 in 0.8 mi West 24.2 mph 29.9 mph 0.00 in Snow Light Snow
8:18 AM 30.2 °F 16.5 °F 28.4 °F 93% 29.94 in 0.8 mi West 24.2 mph 29.9 mph 0.00 in Snow Light Snow
8:26 AM 30.2 °F 16.2 °F 28.4 °F 93% 29.94 in 1.2 mi West 25.3 mph 34.5 mph 0.00 in Snow Light Snow
8:37 AM 30.2 °F 15.2 °F 28.4 °F 93% 29.96 in 0.8 mi West 29.9 mph 34.5 mph 0.00 in Snow Light Snow
8:44 AM 30.2 °F 15.7 °F 28.4 °F 93% 29.96 in 0.8 mi West 27.6 mph 34.5 mph 0.00 in Snow Light Snow
8:53 AM 30.0 °F 15.7 °F 28.0 °F 92% 30.00 in 2.5 mi West 26.5 mph 34.5 mph 0.00 in Snow Light Snow
8:57 AM 30.2 °F 15.9 °F 28.4 °F 93% 29.98 in 2.0 mi West 26.5 mph 32.2 mph 0.00 in Snow Light Snow
9:24 AM 30.2 °F 16.8 °F 28.4 °F 93% 30.00 in 4.0 mi West 23.0 mph - 0.00 in   Overcast
9:53 AM 30.0 °F 15.7 °F 27.0 °F 88% 30.04 in 2.5 mi West 26.5 mph - 0.00 in Rain , Snow Light Freezing Rain
10:42 AM 30.2 °F 16.5 °F 26.6 °F 86% 30.06 in 4.0 mi WNW 24.2 mph 32.2 mph 0.00 in Snow Light Freezing Drizzle
10:53 AM 30.0 °F 15.7 °F 26.1 °F 85% 30.09 in 5.0 mi WNW 26.5 mph - 0.00 in Snow Light Freezing Drizzle
11:01 AM 30.2 °F 16.8 °F 26.6 °F 86% 30.07 in 6.0 mi WNW 23.0 mph 31.1 mph 0.00 in   Overcast
11:53 AM 30.0 °F 16.6 °F 27.0 °F 88% 30.11 in 7.0 mi West 23.0 mph - 0.00 in   Overcast
12:02 PM 30.2 °F 16.8 °F 26.6 °F 86% 30.09 in 9.0 mi West 23.0 mph 31.1 mph N/A   Overcast
12:10 PM 30.2 °F 16.8 °F 26.6 °F 86% 30.09 in 10.0 mi West 23.0 mph 31.1 mph N/A   Overcast
12:53 PM 30.0 °F 16.9 °F 25.0 °F 82% 30.13 in 10.0 mi West 21.9 mph - N/A   Overcast
1:53 PM 28.9 °F 14.8 °F 23.0 °F 78% 30.15 in 10.0 mi West 24.2 mph 29.9 mph N/A   Overcast
2:53 PM 28.9 °F 15.4 °F 21.9 °F 75% 30.18 in 10.0 mi West 21.9 mph - N/A   Overcast
3:39 PM 28.4 °F 15.8 °F 21.2 °F 74% 30.18 in 10.0 mi West 18.4 mph - N/A   Overcast
3:53 PM 28.0 °F 14.3 °F 21.0 °F 75% 30.21 in 10.0 mi West 21.9 mph - N/A   Overcast
4:24 PM 28.4 °F 14.7 °F 24.8 °F 86% 30.20 in 3.0 mi West 21.9 mph - 0.00 in Snow Light Snow
4:53 PM 28.0 °F 14.3 °F 23.0 °F 81% 30.24 in 3.0 mi West 21.9 mph - 0.00 in Snow Light Snow
5:53 PM 28.0 °F 16.1 °F 21.0 °F 75% 30.25 in 10.0 mi WSW 16.1 mph - 0.00 in   Overcast
6:53 PM 27.0 °F 15.2 °F 19.9 °F 75% 30.25 in 10.0 mi WSW 15.0 mph - N/A   Overcast
7:53 PM 27.0 °F 14.7 °F 19.9 °F 75% 30.25 in 10.0 mi WSW 16.1 mph - N/A   Overcast
8:53 PM 26.1 °F 13.6 °F 18.0 °F 71% 30.28 in 10.0 mi WSW 16.1 mph - N/A   Overcast
9:53 PM 24.1 °F 9.8 °F 17.1 °F 75% 30.29 in 10.0 mi WSW 19.6 mph - N/A   Overcast
10:31 PM 23.0 °F 9.6 °F 15.8 °F 74% 30.27 in 10.0 mi WSW 16.1 mph - N/A   Scattered Clouds
10:53 PM 21.9 °F 8.7 °F 15.1 °F 75% 30.30 in 10.0 mi SW 15.0 mph - N/A   Clear
11:53 PM 19.9 °F 7.3 °F 12.9 °F 74% 30.27 in 10.0 mi SW 12.7 mph - N/A   Clear